Find Starlink 3619

NORAD ID: 51787 Int'l Des: 2022-017 Owner: SPXS Country: US Constellation: starlink operational
LEOCIRCULAR

現在のビュー

3D地球を読み込み中...

About Starlink 3619

Starlink 3619 (NORAD 51787) is a starlink constellation satellite (v1.5) launched Feb 25, 2022 by SPXS of US. It operates in LEO, CIRCULAR orbit with a mass of 297.00 kg.

Starlink 3619について

説明を読み込み中...

次回通過

Passes for default location (London). Set your location on the main map for personalized predictions.

高度履歴

Loading altitude history...

軌道要素

1 51787U 22017V 26171.41668980 .00054278 00000-0 23068-2 0 9996
2 51787 53.1599 247.4264 0001463 129.7141 123.2610 15.22545130 5783
Epoch: Jun 20, 2026 • Age: 32 hours

現在のステータス

高度 502.5 km
速度 7.62 km/s
衛星直下点 46.99°N, 110.35°E
打ち上げ日 Feb 25, 2022
運用期間 4.3 years
タイプ internet

技術仕様

分類 Payload
質量 297.00 kg
乾燥質量 275.00 kg
総質量 297.00 kg
長さ 0.20 m
直径 2.80 m
スパン 9.00 m
形状 Box + pan
製造者 SPXS
バスタイプ Starlink
フェーズステータス In Orbit
所有者/国 SPXS/US

Most Searched